,,PA_Meas_PMT16A,,PR_Meas_QMR101_102,,RH_Meas_QMH101,,SR_Meas_QMS101,,TA_Meas_QMH101,,GenWind,,GenWind,
time,status,PA,status,PR,status,RH,status,SR,status,TA,status,DirAvg,status,SpdAvg,
2011-06-24, 00:00:04,VALID,915.402,VALID,0,VALID,94.2559,VALID,0,VALID,20.5009,VALID,24,VALID,0.967578,
2011-06-24, 00:01:04,VALID,915.391,VALID,0,VALID,94.1492,VALID,0,VALID,20.5009,VALID,344,VALID,1.48594,
2011-06-24, 00:02:04,VALID,915.367,VALID,0,VALID,94.233,VALID,0,VALID,20.4813,VALID,24,VALID,2.01406,
2011-06-24, 00:03:04,VALID,915.389,VALID,0,VALID,94.3321,VALID,0,VALID,20.4618,VALID,24,VALID,1.66875,
2011-06-24, 00:04:04,VALID,915.334,VALID,0,VALID,94.4084,VALID,0,VALID,20.4423,VALID,24,VALID,1.17813,
2011-06-24, 00:05:04,VALID,915.337,VALID,0,VALID,94.4617,VALID,0,VALID,20.4439,VALID,6,VALID,1.54492,
2011-06-24, 00:06:04,VALID,915.295,VALID,0,VALID,94.5151,VALID,0,VALID,20.4033,VALID,20,VALID,1.35977,
2011-06-24, 00:07:04,VALID,915.278,VALID,0,VALID,94.6295,VALID,0,VALID,20.3854,VALID,20,VALID,1.5418,
2011-06-24, 00:08:04,VALID,915.276,VALID,0,VALID,94.7057,VALID,0,VALID,20.3659,VALID,23,VALID,1.08281,
2011-06-24, 00:09:04,VALID,915.252,VALID,0,VALID,94.7972,VALID,0,VALID,20.3464,VALID,23,VALID,0.8125,
2011-06-24, 00:10:04,VALID,915.234,VALID,0,VALID,94.9039,VALID,0,VALID,20.3253,VALID,23,VALID,1.00898,
2011-06-24, 00:11:04,VALID,915.22,VALID,0,VALID,94.9573,VALID,0,VALID,20.3074,VALID,23,VALID,0.942969,
2011-06-24, 00:12:04,VALID,915.222,VALID,0,VALID,95.0259,VALID,0,VALID,20.2863,VALID,20,VALID,0.971094,
2011-06-24, 00:13:04,VALID,915.248,VALID,0,VALID,95.0792,VALID,0,VALID,20.3074,VALID,20,VALID,0.446484,
2011-06-24, 00:14:04,VALID,915.247,VALID,0,VALID,95.0869,VALID,0,VALID,20.2863,VALID,7,VALID,1.05156,
2011-06-24, 00:15:04,VALID,915.266,VALID,0,VALID,95.0945,VALID,0,VALID,20.2863,VALID,13,VALID,1.25977,
2011-06-24, 00:16:04,VALID,915.306,VALID,0,VALID,95.1631,VALID,0,VALID,20.2863,VALID,13,VALID,1.28711,
2011-06-24, 00:17:04,VALID,915.328,VALID,0,VALID,95.2241,VALID,0,VALID,20.2879,VALID,338,VALID,1.26992,
2011-06-24, 00:18:04,VALID,915.315,VALID,0,VALID,95.2622,VALID,0,VALID,20.2863,VALID,354,VALID,1.07813,
2011-06-24, 00:19:04,VALID,915.324,VALID,0,VALID,95.2546,VALID,0,VALID,20.2863,VALID,357,VALID,1.27109,
2011-06-24, 00:20:04,VALID,915.309,VALID,0,VALID,95.3003,VALID,0,VALID,20.2879,VALID,356,VALID,1.32344,
2011-06-24, 00:21:04,VALID,915.367,VALID,0,VALID,95.3613,VALID,0,VALID,20.2879,VALID,8,VALID,1.03516,
2011-06-24, 00:22:04,VALID,915.302,VALID,0,VALID,95.3994,VALID,0,VALID,20.2879,VALID,17,VALID,1.57383,
2011-06-24, 00:23:04,VALID,915.33,VALID,0,VALID,95.4223,VALID,0,VALID,20.3074,VALID,17,VALID,0.703516,
2011-06-24, 00:24:04,VALID,915.331,VALID,0,VALID,95.3689,VALID,0,VALID,20.2863,VALID,17,VALID,1.40195,
2011-06-24, 00:25:04,VALID,915.35,VALID,0,VALID,95.4299,VALID,0,VALID,20.3269,VALID,17,VALID,0.491406,
2011-06-24, 00:26:04,VALID,915.386,VALID,0,VALID,95.4223,VALID,0,VALID,20.3058,VALID,17,VALID,0.0355469,
2011-06-24, 00:27:04,VALID,915.382,VALID,0,VALID,95.3766,VALID,0,VALID,20.3058,VALID,17,VALID,0.589844,
2011-06-24, 00:28:04,VALID,915.386,VALID,0,VALID,95.3994,VALID,0,VALID,20.3464,VALID,17,VALID,0.3125,
2011-06-24, 00:29:04,VALID,915.409,VALID,0,VALID,95.3994,VALID,0,VALID,20.3464,VALID,17,VALID,0.610937,
2011-06-24, 00:30:04,VALID,915.39,VALID,0,VALID,95.3308,VALID,0,VALID,20.3448,VALID,17,VALID,0.169531,
2011-06-24, 00:31:04,VALID,915.356,VALID,0,VALID,95.2775,VALID,0,VALID,20.3464,VALID,17,VALID,0.619141,
2011-06-24, 00:32:04,VALID,915.349,VALID,0,VALID,95.2622,VALID,0,VALID,20.3253,VALID,17,VALID,0.313672,
2011-06-24, 00:33:04,VALID,915.334,VALID,0,VALID,95.2775,VALID,0,VALID,20.3253,VALID,17,VALID,0.435156,
2011-06-24, 00:34:04,VALID,915.339,VALID,0,VALID,95.2698,VALID,0,VALID,20.3448,VALID,17,VALID,0,
2011-06-24, 00:35:04,VALID,915.321,VALID,0,VALID,95.2698,VALID,0,VALID,20.3659,VALID,17,VALID,0.0632813,
2011-06-24, 00:36:04,VALID,915.302,VALID,0,VALID,95.2698,VALID,0,VALID,20.3448,VALID,17,VALID,0.670313,
2011-06-24, 00:37:04,VALID,915.304,VALID,0,VALID,95.2546,VALID,0,VALID,20.3659,VALID,17,VALID,0.785937,
2011-06-24, 00:38:04,VALID,915.278,VALID,0,VALID,95.3156,VALID,0,VALID,20.3854,VALID,17,VALID,0.7875,
2011-06-24, 00:39:04,VALID,915.266,VALID,0,VALID,95.247,VALID,0,VALID,20.3854,VALID,17,VALID,0.258594,
2011-06-24, 00:40:04,VALID,915.267,VALID,0,VALID,95.1936,VALID,0,VALID,20.3659,VALID,17,VALID,0.675,
2011-06-24, 00:41:04,VALID,915.225,VALID,0,VALID,95.1707,VALID,0,VALID,20.3269,VALID,17,VALID,0.880859,
2011-06-24, 00:42:04,VALID,915.244,VALID,0,VALID,95.2775,VALID,0,VALID,20.2863,VALID,17,VALID,0.577344,
2011-06-24, 00:43:04,VALID,915.256,VALID,0,VALID,95.3461,VALID,0,VALID,20.2879,VALID,17,VALID,0.725,
2011-06-24, 00:44:04,VALID,915.217,VALID,0,VALID,95.4223,VALID,0,VALID,20.2879,VALID,17,VALID,1.11836,
2011-06-24, 00:45:04,VALID,915.215,VALID,0,VALID,95.468,VALID,0,VALID,20.2684,VALID,17,VALID,0.783984,
2011-06-24, 00:46:04,VALID,915.201,VALID,0,VALID,95.5138,VALID,0,VALID,20.2489,VALID,17,VALID,0.214453,
2011-06-24, 00:47:04,VALID,915.202,VALID,0,VALID,95.5595,VALID,0,VALID,20.2473,VALID,17,VALID,0.746484,
2011-06-24, 00:48:04,VALID,915.157,VALID,0,VALID,95.6053,VALID,0,VALID,20.2684,VALID,17,VALID,1.10195,
2011-06-24, 00:49:04,VALID,915.167,VALID,0,VALID,95.6434,VALID,0,VALID,20.2668,VALID,17,VALID,1.05938,
2011-06-24, 00:50:04,VALID,915.113,VALID,0,VALID,95.6281,VALID,0,VALID,20.2684,VALID,17,VALID,1.07539,
2011-06-24, 00:51:04,VALID,915.122,VALID,0,VALID,95.6129,VALID,0,VALID,20.2684,VALID,17,VALID,1.50781,
2011-06-24, 00:52:04,VALID,915.125,VALID,0,VALID,95.6281,VALID,0,VALID,20.2684,VALID,17,VALID,0.440625,
2011-06-24, 00:53:04,VALID,915.112,VALID,0,VALID,95.6434,VALID,0,VALID,20.2879,VALID,337,VALID,0.723437,
2011-06-24, 00:54:04,VALID,915.123,VALID,0,VALID,95.6129,VALID,0,VALID,20.2684,VALID,319,VALID,0.993359,
2011-06-24, 00:55:04,VALID,915.073,VALID,0,VALID,95.5519,VALID,0,VALID,20.2489,VALID,25,VALID,1.51328,
2011-06-24, 00:56:04,VALID,915.078,VALID,0,VALID,95.5824,VALID,0,VALID,20.2293,VALID,25,VALID,1.0293,
2011-06-24, 00:57:04,VALID,915.069,VALID,0,VALID,95.6053,VALID,0,VALID,20.2098,VALID,25,VALID,0.940625,
2011-06-24, 00:58:04,VALID,915.027,VALID,0,VALID,95.5976,VALID,0,VALID,20.2098,VALID,25,VALID,0.250391,
2011-06-24, 00:59:04,VALID,915.077,VALID,0,VALID,95.5443,VALID,0,VALID,20.1903,VALID,25,VALID,0.615625,
2011-06-24, 01:00:04,VALID,915.016,VALID,0,VALID,95.4757,VALID,0,VALID,20.1708,VALID,25,VALID,0.547266,
2011-06-24, 01:01:04,VALID,915.027,VALID,0,VALID,95.4985,VALID,0,VALID,20.1513,VALID,25,VALID,0.9375,
2011-06-24, 01:02:04,VALID,915.021,VALID,0,VALID,95.529,VALID,0,VALID,20.1513,VALID,25,VALID,0.813281,
2011-06-24, 01:03:04,VALID,915.011,VALID,0,VALID,95.5138,VALID,0,VALID,20.1513,VALID,25,VALID,0.659375,
2011-06-24, 01:04:04,VALID,914.983,VALID,0,VALID,95.5595,VALID,0,VALID,20.1513,VALID,25,VALID,0.277734,
2011-06-24, 01:05:04,VALID,915.001,VALID,0,VALID,95.5748,VALID,0,VALID,20.1513,VALID,25,VALID,0.143359,
2011-06-24, 01:06:04,VALID,914.996,VALID,0,VALID,95.5367,VALID,0,VALID,20.1318,VALID,25,VALID,0.126563,
2011-06-24, 01:07:04,VALID,915.018,VALID,0,VALID,95.5138,VALID,0,VALID,20.1123,VALID,25,VALID,0.385156,
2011-06-24, 01:08:04,VALID,915.007,VALID,0,VALID,95.4833,VALID,0,VALID,20.0928,VALID,24,VALID,0.725781,
2011-06-24, 01:09:04,VALID,914.984,VALID,0,VALID,95.468,VALID,0,VALID,20.0733,VALID,24,VALID,0.758594,
2011-06-24, 01:10:04,VALID,914.991,VALID,0,VALID,95.5138,VALID,0,VALID,20.0733,VALID,344,VALID,0.979688,
2011-06-24, 01:11:04,VALID,914.973,VALID,0,VALID,95.5062,VALID,0,VALID,20.0538,VALID,351,VALID,0.451953,
2011-06-24, 01:12:04,VALID,914.971,VALID,0,VALID,95.4757,VALID,0,VALID,20.0538,VALID,351,VALID,0.103906,
2011-06-24, 01:13:04,VALID,914.958,VALID,0,VALID,95.4299,VALID,0,VALID,20.0538,VALID,351,VALID,0.742578,
2011-06-24, 01:14:04,VALID,914.959,VALID,0,VALID,95.3994,VALID,0,VALID,20.0538,VALID,351,VALID,0.8875,
2011-06-24, 01:15:04,VALID,914.942,VALID,0,VALID,95.3156,VALID,0,VALID,20.0538,VALID,351,VALID,0.947266,
2011-06-24, 01:16:04,VALID,914.952,VALID,0,VALID,95.2698,VALID,0,VALID,20.0538,VALID,11,VALID,1.31562,
2011-06-24, 01:17:04,VALID,914.934,VALID,0,VALID,95.1479,VALID,0,VALID,20.0538,VALID,357,VALID,0.715234,
2011-06-24, 01:18:04,VALID,914.955,VALID,0,VALID,95.0869,VALID,0,VALID,20.0523,VALID,357,VALID,0.250391,
2011-06-24, 01:19:04,VALID,914.942,VALID,0,VALID,95.0488,VALID,0,VALID,20.0523,VALID,357,VALID,0.446875,
2011-06-24, 01:20:04,VALID,914.938,VALID,0,VALID,95.0183,VALID,0,VALID,20.0733,VALID,357,VALID,0.536719,
2011-06-24, 01:21:04,VALID,914.933,VALID,0,VALID,94.942,VALID,0,VALID,20.0343,VALID,357,VALID,0.619531,
2011-06-24, 01:22:04,VALID,914.923,VALID,0,VALID,94.9192,VALID,0,VALID,20.0343,VALID,357,VALID,0.367969,
2011-06-24, 01:23:04,VALID,914.932,VALID,0,VALID,94.9573,VALID,0,VALID,20.0133,VALID,357,VALID,0.723047,
2011-06-24, 01:24:04,VALID,914.927,VALID,0,VALID,94.9725,VALID,0,VALID,20.0148,VALID,357,VALID,0.372656,
2011-06-24, 01:25:04,VALID,914.917,VALID,0,VALID,94.9268,VALID,0,VALID,19.9953,VALID,357,VALID,0,
2011-06-24, 01:26:04,VALID,914.9,VALID,0,VALID,94.9573,VALID,0,VALID,19.9953,VALID,357,VALID,0.208594,
2011-06-24, 01:27:04,VALID,914.907,VALID,0,VALID,94.9954,VALID,0,VALID,19.9548,VALID,357,VALID,0,
2011-06-24, 01:28:04,VALID,914.914,VALID,0,VALID,94.9573,VALID,0,VALID,19.9563,VALID,357,VALID,0.370313,
2011-06-24, 01:29:04,VALID,914.928,VALID,0,VALID,95.0945,VALID,0,VALID,19.9563,VALID,357,VALID,0.288281,
2011-06-24, 01:30:04,VALID,914.935,VALID,0,VALID,95.125,VALID,0,VALID,19.9563,VALID,357,VALID,0.425391,
2011-06-24, 01:31:04,VALID,914.904,VALID,0,VALID,95.2012,VALID,0,VALID,19.9758,VALID,357,VALID,0.298438,
2011-06-24, 01:32:04,VALID,914.938,VALID,0,VALID,95.2698,VALID,0,VALID,19.9758,VALID,357,VALID,0.535937,
2011-06-24, 01:33:04,VALID,914.921,VALID,0,VALID,95.3079,VALID,0,VALID,19.9353,VALID,357,VALID,0.192188,
2011-06-24, 01:34:04,VALID,914.941,VALID,0,VALID,95.3613,VALID,0,VALID,19.9563,VALID,357,VALID,0.00273437,
2011-06-24, 01:35:04,VALID,914.925,VALID,0,VALID,95.3842,VALID,0,VALID,19.9353,VALID,357,VALID,0.249609,
2011-06-24, 01:36:04,VALID,914.915,VALID,0,VALID,95.3766,VALID,0,VALID,19.9353,VALID,357,VALID,0.370313,
2011-06-24, 01:37:04,VALID,914.91,VALID,0,VALID,95.3079,VALID,0,VALID,19.8768,VALID,357,VALID,0.28125,
2011-06-24, 01:38:04,VALID,914.896,VALID,0,VALID,95.3994,VALID,0,VALID,19.8783,VALID,357,VALID,0,
2011-06-24, 01:39:04,VALID,914.906,VALID,0,VALID,95.3994,VALID,0,VALID,19.8783,VALID,357,VALID,0,
2011-06-24, 01:40:04,VALID,914.895,VALID,0,VALID,95.3994,VALID,0,VALID,19.8378,VALID,357,VALID,0,
2011-06-24, 01:41:04,VALID,914.874,VALID,0,VALID,95.4223,VALID,0,VALID,19.8393,VALID,357,VALID,0,
2011-06-24, 01:42:04,VALID,914.906,VALID,0,VALID,95.4528,VALID,0,VALID,19.8183,VALID,357,VALID,0,
2011-06-24, 01:43:04,VALID,914.909,VALID,0,VALID,95.468,VALID,0,VALID,19.8198,VALID,357,VALID,0,
2011-06-24, 01:44:04,VALID,914.921,VALID,0,VALID,95.529,VALID,0,VALID,19.8198,VALID,357,VALID,0,
2011-06-24, 01:45:04,VALID,914.9,VALID,0,VALID,95.6053,VALID,0,VALID,19.8198,VALID,357,VALID,0,
2011-06-24, 01:46:04,VALID,914.882,VALID,0,VALID,95.6053,VALID,0,VALID,19.8198,VALID,357,VALID,0.439063,
2011-06-24, 01:47:04,VALID,914.905,VALID,0,VALID,95.4299,VALID,0,VALID,19.7808,VALID,357,VALID,0.108594,
2011-06-24, 01:48:04,VALID,914.883,VALID,0,VALID,95.6053,VALID,0,VALID,19.7808,VALID,357,VALID,0.447656,
2011-06-24, 01:49:04,VALID,914.874,VALID,0,VALID,95.7196,VALID,0,VALID,19.7988,VALID,357,VALID,0.157422,
2011-06-24, 01:50:04,VALID,914.849,VALID,0,VALID,95.7882,VALID,0,VALID,19.8393,VALID,357,VALID,0.289063,
2011-06-24, 01:51:04,VALID,914.852,VALID,0,VALID,95.8035,VALID,0,VALID,19.8573,VALID,357,VALID,0.350391,
2011-06-24, 01:52:04,VALID,914.861,VALID,0,VALID,95.712,VALID,0,VALID,19.8573,VALID,357,VALID,0.232812,
2011-06-24, 01:53:04,VALID,914.853,VALID,0,VALID,95.6967,VALID,0.107441,VALID,19.8573,VALID,357,VALID,0.351953,
2011-06-24, 01:54:04,VALID,914.863,VALID,0,VALID,95.7577,VALID,0,VALID,19.8558,VALID,357,VALID,0.243359,
2011-06-24, 01:55:04,VALID,914.858,VALID,0,VALID,95.7349,VALID,0.107441,VALID,19.8963,VALID,357,VALID,0.277734,
2011-06-24, 01:56:04,VALID,914.876,VALID,0,VALID,95.7044,VALID,0,VALID,19.8963,VALID,357,VALID,0.487109,
2011-06-24, 01:57:04,VALID,914.855,VALID,0,VALID,95.6205,VALID,0.107441,VALID,19.8753,VALID,357,VALID,1.17422,
2011-06-24, 01:58:04,VALID,914.86,VALID,0,VALID,95.59,VALID,0,VALID,19.9158,VALID,332,VALID,0.776953,
2011-06-24, 01:59:04,VALID,914.83,VALID,0,VALID,95.6357,VALID,0.107441,VALID,19.9548,VALID,332,VALID,0.917969,
2011-06-24, 02:00:04,VALID,914.813,VALID,0,VALID,95.5214,VALID,0,VALID,19.9938,VALID,24,VALID,1.05469,
2011-06-24, 02:01:04,VALID,914.794,VALID,0,VALID,95.4375,VALID,0.107441,VALID,19.9938,VALID,24,VALID,0.346484,
2011-06-24, 02:02:04,VALID,914.771,VALID,0,VALID,95.3613,VALID,0.107441,VALID,20.0133,VALID,24,VALID,0,
2011-06-24, 02:03:04,VALID,914.763,VALID,0,VALID,95.3079,VALID,0.107441,VALID,19.9923,VALID,24,VALID,0.344922,
2011-06-24, 02:04:04,VALID,914.759,VALID,0,VALID,95.2851,VALID,0.107441,VALID,20.0328,VALID,24,VALID,0,
2011-06-24, 02:05:04,VALID,914.74,VALID,0,VALID,95.2393,VALID,0.107441,VALID,20.0313,VALID,24,VALID,0,
2011-06-24, 02:06:04,VALID,914.709,VALID,0,VALID,95.1783,VALID,0,VALID,20.0523,VALID,24,VALID,0.138672,
2011-06-24, 02:07:04,VALID,914.727,VALID,0,VALID,95.125,VALID,0,VALID,20.0523,VALID,24,VALID,0.203516,
2011-06-24, 02:08:04,VALID,914.732,VALID,0,VALID,95.1021,VALID,0,VALID,20.0944,VALID,24,VALID,0.139453,
2011-06-24, 02:09:04,VALID,914.771,VALID,0,VALID,95.0716,VALID,0,VALID,20.0733,VALID,24,VALID,0.0496094,
2011-06-24, 02:10:04,VALID,914.76,VALID,0,VALID,94.8124,VALID,0,VALID,20.0343,VALID,24,VALID,0.345703,
2011-06-24, 02:11:04,VALID,914.73,VALID,0,VALID,94.6523,VALID,0,VALID,20.0538,VALID,24,VALID,0.273438,
2011-06-24, 02:12:04,VALID,914.757,VALID,0,VALID,94.6371,VALID,0,VALID,20.0733,VALID,24,VALID,0.314063,
2011-06-24, 02:13:04,VALID,914.735,VALID,0,VALID,94.5151,VALID,0,VALID,20.0733,VALID,24,VALID,0.334766,
2011-06-24, 02:14:04,VALID,914.736,VALID,0,VALID,94.3398,VALID,0,VALID,20.0538,VALID,24,VALID,0.527344,
2011-06-24, 02:15:04,VALID,914.743,VALID,0,VALID,94.294,VALID,0,VALID,20.0538,VALID,24,VALID,0.350391,
2011-06-24, 02:16:04,VALID,914.701,VALID,0,VALID,94.2254,VALID,0,VALID,20.0538,VALID,24,VALID,0.261328,
2011-06-24, 02:17:04,VALID,914.7,VALID,0,VALID,94.0501,VALID,0,VALID,20.0538,VALID,24,VALID,0.774219,
2011-06-24, 02:18:04,VALID,914.692,VALID,0,VALID,93.9434,VALID,0,VALID,20.0343,VALID,24,VALID,0.537891,
2011-06-24, 02:19:04,VALID,914.715,VALID,0,VALID,93.9434,VALID,0,VALID,20.0538,VALID,302,VALID,0.599219,
2011-06-24, 02:20:04,VALID,914.723,VALID,0,VALID,93.9205,VALID,0,VALID,20.0538,VALID,302,VALID,0.577344,
2011-06-24, 02:21:04,VALID,914.729,VALID,0,VALID,93.8519,VALID,0.107441,VALID,20.0718,VALID,343,VALID,0.694922,
2011-06-24, 02:22:04,VALID,914.717,VALID,0,VALID,93.7756,VALID,0.107441,VALID,20.0718,VALID,360,VALID,0.814453,
2011-06-24, 02:23:04,VALID,914.708,VALID,0,VALID,93.6613,VALID,0.107441,VALID,20.0718,VALID,360,VALID,0.601563,
2011-06-24, 02:24:04,VALID,914.735,VALID,0,VALID,93.5774,VALID,0.107441,VALID,20.1108,VALID,309,VALID,0.300391,
2011-06-24, 02:25:04,VALID,914.702,VALID,0,VALID,93.4097,VALID,0.107441,VALID,20.1498,VALID,309,VALID,0.332031,
2011-06-24, 02:26:04,VALID,914.673,VALID,0,VALID,93.0667,VALID,0.107441,VALID,20.1498,VALID,309,VALID,0.607422,
2011-06-24, 02:27:04,VALID,914.636,VALID,0,VALID,93.181,VALID,0.107441,VALID,20.2083,VALID,309,VALID,0.695703,
2011-06-24, 02:28:04,VALID,914.609,VALID,0,VALID,93.2877,VALID,0.107441,VALID,20.1888,VALID,309,VALID,0.551953,
2011-06-24, 02:29:04,VALID,914.557,VALID,0,VALID,93.1658,VALID,0.107441,VALID,20.1873,VALID,309,VALID,0.923437,
2011-06-24, 02:30:04,VALID,914.579,VALID,0,VALID,93.0972,VALID,0.107441,VALID,20.1693,VALID,348,VALID,0.630078,
2011-06-24, 02:31:04,VALID,914.589,VALID,0,VALID,93.3106,VALID,0.107441,VALID,20.1288,VALID,348,VALID,0.423828,
2011-06-24, 02:32:04,VALID,914.584,VALID,0,VALID,93.5164,VALID,0.107441,VALID,20.1093,VALID,348,VALID,0.344141,
2011-06-24, 02:33:04,VALID,914.574,VALID,0,VALID,93.6918,VALID,0.107441,VALID,20.1303,VALID,348,VALID,0.0136719,
2011-06-24, 02:34:04,VALID,914.572,VALID,0,VALID,93.7985,VALID,0.107441,VALID,20.1108,VALID,348,VALID,0.366016,
2011-06-24, 02:35:04,VALID,914.537,VALID,0,VALID,93.9281,VALID,0.107441,VALID,20.0898,VALID,348,VALID,0.412109,
2011-06-24, 02:36:04,VALID,914.51,VALID,0,VALID,93.9891,VALID,0,VALID,20.0733,VALID,348,VALID,0.612891,
2011-06-24, 02:37:04,VALID,914.518,VALID,0,VALID,93.9205,VALID,0,VALID,20.0523,VALID,348,VALID,1.01797,
2011-06-24, 02:38:04,VALID,914.505,VALID,0,VALID,93.8747,VALID,0,VALID,20.0148,VALID,348,VALID,0.818359,
2011-06-24, 02:39:04,VALID,914.47,VALID,0,VALID,93.8671,VALID,0,VALID,20.0148,VALID,348,VALID,0.527344,
2011-06-24, 02:40:04,VALID,914.463,VALID,0,VALID,93.8595,VALID,0,VALID,19.9953,VALID,348,VALID,0.455078,
2011-06-24, 02:41:04,VALID,914.497,VALID,0,VALID,93.6994,VALID,0,VALID,19.9758,VALID,348,VALID,0.898438,
2011-06-24, 02:42:04,VALID,914.472,VALID,0,VALID,93.6003,VALID,0,VALID,19.9758,VALID,348,VALID,0.769922,
2011-06-24, 02:43:04,VALID,914.449,VALID,0,VALID,93.4631,VALID,0,VALID,19.9563,VALID,349,VALID,0.401563,
2011-06-24, 02:44:04,VALID,914.418,VALID,0,VALID,93.4936,VALID,0,VALID,19.9563,VALID,349,VALID,0.542578,
2011-06-24, 02:45:04,VALID,914.411,VALID,0,VALID,93.3716,VALID,0,VALID,19.9758,VALID,16,VALID,1.31328,
2011-06-24, 02:46:04,VALID,914.416,VALID,0,VALID,93.2039,VALID,0,VALID,19.9563,VALID,16,VALID,1.06328,
2011-06-24, 02:47:04,VALID,914.385,VALID,0,VALID,93.0895,VALID,0,VALID,19.9758,VALID,16,VALID,0.834375,
2011-06-24, 02:48:04,VALID,914.397,VALID,0,VALID,93.0133,VALID,0,VALID,19.9548,VALID,16,VALID,0.552344,
2011-06-24, 02:49:04,VALID,914.389,VALID,0,VALID,93.0362,VALID,0,VALID,19.9758,VALID,16,VALID,0.385938,
2011-06-24, 02:50:04,VALID,914.363,VALID,0,VALID,93.0209,VALID,0,VALID,19.9743,VALID,328,VALID,0.879297,
2011-06-24, 02:51:04,VALID,914.373,VALID,0,VALID,93.0362,VALID,0,VALID,19.9953,VALID,328,VALID,0.358984,
2011-06-24, 02:52:04,VALID,914.371,VALID,0,VALID,92.8989,VALID,0,VALID,19.9743,VALID,342,VALID,0.839453,
2011-06-24, 02:53:04,VALID,914.355,VALID,0,VALID,92.8989,VALID,0,VALID,19.9953,VALID,349,VALID,0.486328,
2011-06-24, 02:54:04,VALID,914.388,VALID,0,VALID,92.9142,VALID,0,VALID,19.9953,VALID,349,VALID,0.310547,
2011-06-24, 02:55:04,VALID,914.389,VALID,0,VALID,92.8075,VALID,0,VALID,19.9953,VALID,349,VALID,0.621484,
2011-06-24, 02:56:04,VALID,914.348,VALID,0,VALID,92.8075,VALID,0,VALID,19.9563,VALID,350,VALID,0.982422,
2011-06-24, 02:57:04,VALID,914.305,VALID,0,VALID,92.9599,VALID,0,VALID,19.9368,VALID,9,VALID,1.1543,
2011-06-24, 02:58:04,VALID,914.309,VALID,0,VALID,92.9828,VALID,0,VALID,19.9173,VALID,9,VALID,0.698828,
2011-06-24, 02:59:04,VALID,914.265,VALID,0,VALID,92.8837,VALID,0,VALID,19.8978,VALID,9,VALID,0.954687,
2011-06-24, 03:00:04,VALID,914.288,VALID,0,VALID,92.7617,VALID,0,VALID,19.8978,VALID,9,VALID,1.05391,
2011-06-24, 03:01:04,VALID,914.272,VALID,0,VALID,92.6779,VALID,0,VALID,19.9158,VALID,9,VALID,0.792969,
2011-06-24, 03:02:04,VALID,914.266,VALID,0,VALID,92.6245,VALID,0,VALID,19.9173,VALID,9,VALID,0.463281,
2011-06-24, 03:03:04,VALID,914.253,VALID,0,VALID,92.838,VALID,0,VALID,19.9158,VALID,9,VALID,0.666016,
2011-06-24, 03:04:04,VALID,914.223,VALID,0,VALID,93.0819,VALID,0,VALID,19.9353,VALID,9,VALID,0.508594,
2011-06-24, 03:05:04,VALID,914.227,VALID,0,VALID,92.8989,VALID,0,VALID,19.9173,VALID,7,VALID,1.06367,
2011-06-24, 03:06:04,VALID,914.211,VALID,0,VALID,92.7007,VALID,0,VALID,19.9173,VALID,358,VALID,0.924219,
2011-06-24, 03:07:04,VALID,914.214,VALID,0,VALID,92.5559,VALID,0,VALID,19.9368,VALID,1,VALID,0.582031,
2011-06-24, 03:08:04,VALID,914.176,VALID,0,VALID,92.5102,VALID,0,VALID,19.9353,VALID,1,VALID,0.298438,
2011-06-24, 03:09:04,VALID,914.168,VALID,0,VALID,92.5483,VALID,0,VALID,19.9953,VALID,1,VALID,0.0695312,
2011-06-24, 03:10:04,VALID,914.149,VALID,0,VALID,92.8075,VALID,0,VALID,19.9953,VALID,1,VALID,0.23125,
2011-06-24, 03:11:04,VALID,914.106,VALID,0,VALID,92.9523,VALID,0,VALID,19.9953,VALID,1,VALID,0.408594,
2011-06-24, 03:12:04,VALID,914.111,VALID,0,VALID,92.9676,VALID,0,VALID,19.9953,VALID,1,VALID,0.700391,
2011-06-24, 03:13:04,VALID,914.129,VALID,0,VALID,92.6093,VALID,0,VALID,19.9368,VALID,1,VALID,0.525391,
2011-06-24, 03:14:04,VALID,914.12,VALID,0,VALID,92.6397,VALID,0,VALID,19.9758,VALID,1,VALID,0.328516,
2011-06-24, 03:15:04,VALID,914.124,VALID,0,VALID,92.3958,VALID,0,VALID,19.9758,VALID,1,VALID,0.771875,
2011-06-24, 03:16:04,VALID,914.139,VALID,0,VALID,92.2205,VALID,0,VALID,19.9953,VALID,1,VALID,0.137109,
2011-06-24, 03:17:04,VALID,914.15,VALID,0,VALID,92.0985,VALID,0,VALID,19.9953,VALID,356,VALID,0.388281,
2011-06-24, 03:18:04,VALID,914.137,VALID,0,VALID,92.1214,VALID,0,VALID,20.0148,VALID,343,VALID,0.489453,
2011-06-24, 03:19:04,VALID,914.129,VALID,0,VALID,92.777,VALID,0,VALID,20.0343,VALID,343,VALID,0.233203,
2011-06-24, 03:20:04,VALID,914.128,VALID,0,VALID,92.7998,VALID,0,VALID,20.0148,VALID,343,VALID,0.142969,
2011-06-24, 03:21:04,VALID,914.149,VALID,0,VALID,92.7007,VALID,0.107441,VALID,19.9938,VALID,343,VALID,0.552734,
2011-06-24, 03:22:04,VALID,914.123,VALID,0,VALID,92.8532,VALID,0.107441,VALID,20.0118,VALID,343,VALID,0.457812,
2011-06-24, 03:23:04,VALID,914.151,VALID,0,VALID,93.0743,VALID,0,VALID,20.0133,VALID,343,VALID,0.390625,
2011-06-24, 03:24:04,VALID,914.155,VALID,0,VALID,93.1963,VALID,0.107441,VALID,19.9938,VALID,272,VALID,0.300391,
2011-06-24, 03:25:04,VALID,914.116,VALID,0,VALID,93.2877,VALID,0,VALID,19.9548,VALID,272,VALID,0.175,
2011-06-24, 03:26:04,VALID,914.09,VALID,0,VALID,93.4631,VALID,0.107441,VALID,19.9548,VALID,272,VALID,0,
2011-06-24, 03:27:04,VALID,914.08,VALID,0,VALID,93.4783,VALID,0.107441,VALID,19.9353,VALID,272,VALID,0.656641,
2011-06-24, 03:28:04,VALID,914.086,VALID,0,VALID,93.3792,VALID,0,VALID,19.8768,VALID,272,VALID,0.671094,
2011-06-24, 03:29:04,VALID,914.086,VALID,0,VALID,93.5393,VALID,0,VALID,19.8573,VALID,272,VALID,0.477734,
2011-06-24, 03:30:04,VALID,914.09,VALID,0,VALID,93.5546,VALID,0,VALID,19.8378,VALID,272,VALID,0.348047,
2011-06-24, 03:31:04,VALID,914.109,VALID,0,VALID,93.5927,VALID,0,VALID,19.8198,VALID,272,VALID,0.661719,
2011-06-24, 03:32:04,VALID,914.098,VALID,0,VALID,93.6842,VALID,0,VALID,19.7793,VALID,272,VALID,0.545703,
2011-06-24, 03:33:04,VALID,914.127,VALID,0,VALID,93.6155,VALID,0,VALID,19.7598,VALID,272,VALID,0.510547,
2011-06-24, 03:34:04,VALID,914.093,VALID,0,VALID,93.5698,VALID,0,VALID,19.7208,VALID,19,VALID,0.929297,
2011-06-24, 03:35:04,VALID,914.126,VALID,0,VALID,93.6155,VALID,0,VALID,19.7208,VALID,20,VALID,0.551953,
2011-06-24, 03:36:04,VALID,914.114,VALID,0,VALID,93.6079,VALID,0,VALID,19.7433,VALID,20,VALID,0,
2011-06-24, 03:37:04,VALID,914.114,VALID,0,VALID,93.6155,VALID,0,VALID,19.7613,VALID,20,VALID,0,
2011-06-24, 03:38:04,VALID,914.117,VALID,0,VALID,93.4859,VALID,0,VALID,19.7808,VALID,20,VALID,0.500781,
2011-06-24, 03:39:04,VALID,914.114,VALID,0,VALID,93.4936,VALID,0,VALID,19.7808,VALID,20,VALID,0.269141,
2011-06-24, 03:40:04,VALID,914.087,VALID,0,VALID,93.89,VALID,0,VALID,19.8003,VALID,20,VALID,1.35352,
2011-06-24, 03:41:04,VALID,914.067,VALID,0,VALID,93.951,VALID,0,VALID,19.7613,VALID,356,VALID,1.33711,
2011-06-24, 03:42:04,VALID,914.108,VALID,0,VALID,93.5164,VALID,0,VALID,19.7808,VALID,27,VALID,1.07148,
2011-06-24, 03:43:04,VALID,914.081,VALID,0,VALID,93.0362,VALID,0,VALID,19.8198,VALID,15,VALID,1.28789,
2011-06-24, 03:44:04,VALID,914.073,VALID,0,VALID,92.5483,VALID,0,VALID,19.8378,VALID,44,VALID,1.51992,
2011-06-24, 03:45:04,VALID,914.078,VALID,0,VALID,91.8774,VALID,0,VALID,19.8783,VALID,36,VALID,0.849609,